Year,Month,Day,Hour,Minute,Value (Times are PST for temperature in C)
2018,03,29,07,54,5.50
2018,03,29,07,55,5.50
2018,03,29,07,56,5.50
2018,03,29,07,57,5.50
2018,03,29,07,58,5.50
2018,03,29,07,59,5.50
2018,03,29,08,00,5.50
2018,03,29,08,01,5.60
2018,03,29,08,02,5.60
2018,03,29,08,03,5.60
2018,03,29,08,04,5.60
2018,03,29,08,05,5.60
2018,03,29,08,06,5.60
2018,03,29,08,07,5.60
2018,03,29,08,08,5.60
2018,03,29,08,09,5.60
2018,03,29,08,10,5.60
2018,03,29,08,11,5.60
2018,03,29,08,12,5.60
2018,03,29,08,13,5.60
2018,03,29,08,14,5.60
2018,03,29,08,15,5.70
2018,03,29,08,16,5.70
2018,03,29,08,17,5.70
2018,03,29,08,18,5.70
2018,03,29,08,19,5.70
2018,03,29,08,20,5.70
2018,03,29,08,21,5.70
2018,03,29,08,22,5.80
2018,03,29,08,23,5.80
2018,03,29,08,24,5.80
2018,03,29,08,25,5.80
2018,03,29,08,26,5.80
2018,03,29,08,27,5.80
2018,03,29,08,28,5.90
2018,03,29,08,29,5.90
2018,03,29,08,30,5.90
2018,03,29,08,31,6.00
2018,03,29,08,32,6.00
2018,03,29,08,33,6.10
2018,03,29,08,34,6.10
2018,03,29,08,35,6.20
2018,03,29,08,36,6.20
2018,03,29,08,37,6.30
2018,03,29,08,38,6.30
2018,03,29,08,39,6.30
2018,03,29,08,40,6.40
2018,03,29,08,41,6.40
2018,03,29,08,42,6.50
2018,03,29,08,43,6.50
2018,03,29,08,44,6.60
2018,03,29,08,45,6.60
2018,03,29,08,46,6.60
2018,03,29,08,47,6.60
2018,03,29,08,48,6.70
2018,03,29,08,49,6.70
2018,03,29,08,50,6.70
2018,03,29,08,51,6.80
2018,03,29,08,52,6.80
2018,03,29,08,53,6.80
2018,03,29,08,54,6.90
2018,03,29,08,55,6.90
2018,03,29,08,56,7.00
2018,03,29,08,57,7.00
2018,03,29,08,58,7.10
2018,03,29,08,59,7.10
2018,03,29,09,00,7.10
2018,03,29,09,01,7.20
2018,03,29,09,02,7.20
2018,03,29,09,03,7.20
2018,03,29,09,04,7.30
2018,03,29,09,05,7.30
2018,03,29,09,06,7.30
2018,03,29,09,07,7.30
2018,03,29,09,08,7.30
2018,03,29,09,09,7.30
2018,03,29,09,10,7.30
2018,03,29,09,11,7.30
2018,03,29,09,12,7.40
2018,03,29,09,13,7.40
2018,03,29,09,14,7.40
2018,03,29,09,15,7.40
2018,03,29,09,16,7.40
2018,03,29,09,17,7.30
2018,03,29,09,18,7.30
2018,03,29,09,19,7.30
2018,03,29,09,20,7.30
2018,03,29,09,21,7.30
2018,03,29,09,22,7.30
2018,03,29,09,23,7.30
2018,03,29,09,24,7.30
2018,03,29,09,25,7.30
2018,03,29,09,26,7.30
2018,03,29,09,27,7.30
2018,03,29,09,28,7.20
2018,03,29,09,29,7.20
2018,03,29,09,30,7.20
2018,03,29,09,31,7.20
2018,03,29,09,32,7.20
2018,03,29,09,33,7.20
2018,03,29,09,34,7.20
2018,03,29,09,35,7.20
2018,03,29,09,36,7.30
2018,03,29,09,37,7.30
2018,03,29,09,38,7.30
2018,03,29,09,39,7.30
2018,03,29,09,40,7.30
2018,03,29,09,41,7.30
2018,03,29,09,42,7.40
2018,03,29,09,43,7.40
2018,03,29,09,44,7.40
2018,03,29,09,45,7.40
2018,03,29,09,46,7.50
2018,03,29,09,47,7.40
2018,03,29,09,48,7.50
2018,03,29,09,49,7.50
2018,03,29,09,50,7.50
2018,03,29,09,51,7.50
2018,03,29,09,52,7.50
2018,03,29,09,53,7.50
2018,03,29,09,54,7.60
2018,03,29,09,55,7.60
2018,03,29,09,56,7.60
2018,03,29,09,57,7.60
2018,03,29,09,58,7.60
2018,03,29,09,59,7.60
2018,03,29,10,00,7.60
2018,03,29,10,01,7.60
2018,03,29,10,02,7.60
2018,03,29,10,03,7.60
2018,03,29,10,04,7.60
2018,03,29,10,05,7.60
2018,03,29,10,06,7.60
2018,03,29,10,07,7.60
2018,03,29,10,08,7.60
2018,03,29,10,09,7.60
2018,03,29,10,10,7.60
2018,03,29,10,11,7.60
2018,03,29,10,12,7.60
2018,03,29,10,13,7.50
2018,03,29,10,14,7.50
2018,03,29,10,15,7.50
2018,03,29,10,16,7.50
2018,03,29,10,17,7.50
2018,03,29,10,18,7.50
2018,03,29,10,19,7.50
2018,03,29,10,20,7.50
2018,03,29,10,21,7.50
2018,03,29,10,22,7.50
2018,03,29,10,23,7.60
2018,03,29,10,24,7.60
2018,03,29,10,25,7.60
2018,03,29,10,26,7.60
2018,03,29,10,27,7.60
2018,03,29,10,28,7.60
2018,03,29,10,29,7.60
2018,03,29,10,30,7.60
2018,03,29,10,31,7.60
2018,03,29,10,32,7.60
2018,03,29,10,33,7.60
2018,03,29,10,34,7.60
2018,03,29,10,35,7.60
2018,03,29,10,36,7.60
2018,03,29,10,37,7.60
2018,03,29,10,38,7.60
2018,03,29,10,39,7.60
2018,03,29,10,40,7.60
2018,03,29,10,41,7.70
2018,03,29,10,42,7.70
2018,03,29,10,43,7.70
2018,03,29,10,44,7.70
2018,03,29,10,45,7.70
2018,03,29,10,46,7.70
2018,03,29,10,47,7.70
2018,03,29,10,48,7.70
2018,03,29,10,49,7.60
2018,03,29,10,50,7.60
2018,03,29,10,51,7.60
2018,03,29,10,52,7.60
2018,03,29,10,53,7.60
2018,03,29,10,54,7.60
2018,03,29,10,55,7.60
2018,03,29,10,56,7.60
2018,03,29,10,57,7.60
2018,03,29,10,58,7.60
2018,03,29,10,59,7.60
2018,03,29,11,00,7.60
2018,03,29,11,01,7.60
2018,03,29,11,02,7.60
2018,03,29,11,03,7.60
2018,03,29,11,04,7.60
2018,03,29,11,05,7.60
2018,03,29,11,06,7.60
2018,03,29,11,07,7.70
2018,03,29,11,08,7.70
2018,03,29,11,09,7.70
2018,03,29,11,10,7.70
2018,03,29,11,11,7.70
2018,03,29,11,12,7.80
2018,03,29,11,13,7.80
2018,03,29,11,14,7.80
2018,03,29,11,15,7.80
2018,03,29,11,16,7.70
2018,03,29,11,17,7.70
2018,03,29,11,18,7.70
2018,03,29,11,19,7.70
2018,03,29,11,20,7.70
2018,03,29,11,21,7.70
2018,03,29,11,22,7.70
2018,03,29,11,23,7.70
2018,03,29,11,24,7.70
2018,03,29,11,25,7.70
2018,03,29,11,26,7.70
2018,03,29,11,27,7.70
2018,03,29,11,28,7.70
2018,03,29,11,29,7.80
2018,03,29,11,30,7.80
2018,03,29,11,31,7.80
2018,03,29,11,32,7.90
2018,03,29,11,33,7.90
2018,03,29,11,34,7.90
2018,03,29,11,35,8.00
2018,03,29,11,36,8.00
2018,03,29,11,37,8.10
2018,03,29,11,38,8.10
2018,03,29,11,39,8.20
2018,03,29,11,40,8.20
2018,03,29,11,41,8.30
2018,03,29,11,42,8.30
2018,03,29,11,43,8.40
2018,03,29,11,44,8.40
2018,03,29,11,45,8.40
2018,03,29,11,46,8.40
2018,03,29,11,47,8.40
2018,03,29,11,48,8.30
2018,03,29,11,49,8.30
2018,03,29,11,50,8.30
2018,03,29,11,51,8.30
2018,03,29,11,52,8.30
2018,03,29,11,53,8.30
2018,03,29,11,54,8.30
2018,03,29,11,55,8.30
2018,03,29,11,56,8.30
2018,03,29,11,57,8.30
2018,03,29,11,58,8.30
2018,03,29,11,59,8.30
2018,03,29,12,00,8.30
2018,03,29,12,01,8.30
2018,03,29,12,02,8.30
2018,03,29,12,03,8.30
2018,03,29,12,04,8.30
2018,03,29,12,05,8.30
2018,03,29,12,06,8.30
2018,03,29,12,07,8.30
2018,03,29,12,08,8.40
2018,03,29,12,09,8.40
2018,03,29,12,10,8.40
2018,03,29,12,11,8.40
2018,03,29,12,12,8.40
2018,03,29,12,13,8.40
2018,03,29,12,14,8.40
2018,03,29,12,15,8.40
2018,03,29,12,16,8.40
2018,03,29,12,17,8.40
2018,03,29,12,18,8.50
2018,03,29,12,19,8.50
2018,03,29,12,20,8.60
2018,03,29,12,21,8.60
2018,03,29,12,22,8.60
2018,03,29,12,23,8.60
2018,03,29,12,24,8.60
2018,03,29,12,25,8.60
2018,03,29,12,26,8.60
2018,03,29,12,27,8.70
2018,03,29,12,28,8.70
2018,03,29,12,29,8.70
2018,03,29,12,30,8.70
2018,03,29,12,31,8.70
2018,03,29,12,32,8.80
2018,03,29,12,33,8.80
2018,03,29,12,34,8.80
2018,03,29,12,35,8.80
2018,03,29,12,36,8.90
2018,03,29,12,37,8.90
2018,03,29,12,38,8.90
2018,03,29,12,39,8.90
2018,03,29,12,40,8.90
2018,03,29,12,41,8.90
2018,03,29,12,42,8.90
2018,03,29,12,43,8.90
2018,03,29,12,44,8.90
2018,03,29,12,45,8.80
2018,03,29,12,46,8.80
2018,03,29,12,47,8.80
2018,03,29,12,48,8.80
2018,03,29,12,49,8.80
2018,03,29,12,50,8.80
2018,03,29,12,51,8.80
2018,03,29,12,52,8.80
2018,03,29,12,53,8.70
2018,03,29,12,54,8.70
2018,03,29,12,55,8.70
2018,03,29,12,56,8.70
2018,03,29,12,57,8.70
2018,03,29,12,58,8.80
2018,03,29,12,59,8.80
2018,03,29,13,00,8.80
2018,03,29,13,01,8.80
2018,03,29,13,02,8.70
2018,03,29,13,03,8.80
2018,03,29,13,04,8.80
2018,03,29,13,05,8.80
2018,03,29,13,06,8.80
2018,03,29,13,07,8.80
2018,03,29,13,08,8.80
2018,03,29,13,09,8.80
2018,03,29,13,10,8.80
2018,03,29,13,11,8.80
2018,03,29,13,12,8.80
2018,03,29,13,13,8.80
2018,03,29,13,14,8.80
2018,03,29,13,15,8.80
2018,03,29,13,16,8.80
2018,03,29,13,17,8.80
2018,03,29,13,18,8.70
2018,03,29,13,19,8.70
2018,03,29,13,20,8.70
2018,03,29,13,21,8.70
2018,03,29,13,22,8.70
2018,03,29,13,23,8.70
2018,03,29,13,24,8.70
2018,03,29,13,25,8.70
2018,03,29,13,26,8.60
2018,03,29,13,27,8.60
2018,03,29,13,28,8.60
2018,03,29,13,29,8.60
2018,03,29,13,30,8.60
2018,03,29,13,31,8.60
2018,03,29,13,32,8.60
2018,03,29,13,33,8.50
2018,03,29,13,34,8.50
2018,03,29,13,35,8.40
2018,03,29,13,36,8.40
2018,03,29,13,37,8.30
2018,03,29,13,38,8.30
2018,03,29,13,39,8.30
2018,03,29,13,40,8.30
2018,03,29,13,41,8.30
2018,03,29,13,42,8.30
2018,03,29,13,43,8.30
2018,03,29,13,44,8.30
2018,03,29,13,45,8.30
2018,03,29,13,46,8.30
2018,03,29,13,47,8.30
2018,03,29,13,48,8.30
2018,03,29,13,49,8.30
2018,03,29,13,50,8.30
2018,03,29,13,51,8.30
2018,03,29,13,52,8.20
2018,03,29,13,53,8.20
2018,03,29,13,54,8.30
2018,03,29,13,55,8.30
2018,03,29,13,56,8.30
2018,03,29,13,57,8.30
2018,03,29,13,58,8.30
2018,03,29,13,59,8.30
2018,03,29,14,00,8.30
2018,03,29,14,01,8.40
2018,03,29,14,02,8.40
2018,03,29,14,03,8.40
2018,03,29,14,04,8.40
2018,03,29,14,05,8.40
2018,03,29,14,06,8.40
2018,03,29,14,07,8.40
2018,03,29,14,08,8.40
2018,03,29,14,09,8.40
2018,03,29,14,10,8.50
2018,03,29,14,11,8.60
2018,03,29,14,12,8.60
2018,03,29,14,13,8.60
2018,03,29,14,14,8.60
2018,03,29,14,15,8.50
2018,03,29,14,16,8.50
2018,03,29,14,17,8.50
2018,03,29,14,18,8.50
2018,03,29,14,19,8.50
2018,03,29,14,20,8.60
2018,03,29,14,21,8.60
2018,03,29,14,22,8.60
2018,03,29,14,23,8.60
2018,03,29,14,24,8.70
2018,03,29,14,25,8.70
2018,03,29,14,26,8.70
2018,03,29,14,27,8.80
2018,03,29,14,28,8.80
2018,03,29,14,29,8.80
2018,03,29,14,30,8.80
2018,03,29,14,31,8.80
2018,03,29,14,32,8.80
2018,03,29,14,33,8.80
2018,03,29,14,34,8.80
2018,03,29,14,35,8.90
2018,03,29,14,36,8.90
2018,03,29,14,37,8.90
2018,03,29,14,38,8.90
2018,03,29,14,39,8.90
2018,03,29,14,40,8.90
2018,03,29,14,41,8.90
2018,03,29,14,42,8.90
2018,03,29,14,43,8.90
2018,03,29,14,44,8.90
2018,03,29,14,45,8.90
2018,03,29,14,46,8.80
2018,03,29,14,47,8.80
2018,03,29,14,48,8.80
2018,03,29,14,49,8.80
2018,03,29,14,50,8.80
2018,03,29,14,51,8.80
2018,03,29,14,52,8.80
2018,03,29,14,53,8.80
2018,03,29,14,54,8.80
2018,03,29,14,55,8.80
2018,03,29,14,56,8.90
2018,03,29,14,57,8.90
2018,03,29,14,58,8.90
2018,03,29,14,59,8.90
2018,03,29,15,00,8.90
2018,03,29,15,01,9.00
2018,03,29,15,02,9.00
2018,03,29,15,03,9.00
2018,03,29,15,04,9.00
2018,03,29,15,05,9.00
2018,03,29,15,06,9.00
2018,03,29,15,07,9.00
2018,03,29,15,08,9.00
2018,03,29,15,09,9.10
2018,03,29,15,10,9.10
2018,03,29,15,11,9.10
2018,03,29,15,12,9.10
2018,03,29,15,13,9.10
2018,03,29,15,14,9.10
2018,03,29,15,15,9.10
2018,03,29,15,16,9.10
2018,03,29,15,17,9.10
2018,03,29,15,18,9.10
2018,03,29,15,19,9.10
2018,03,29,15,20,9.10
2018,03,29,15,21,9.10
2018,03,29,15,22,9.00
2018,03,29,15,23,8.90
2018,03,29,15,24,8.90
2018,03,29,15,25,8.90
2018,03,29,15,26,8.90
2018,03,29,15,27,8.90
2018,03,29,15,28,8.90
2018,03,29,15,29,9.00
2018,03,29,15,30,9.00
2018,03,29,15,31,9.00
2018,03,29,15,32,9.00
2018,03,29,15,33,9.00
2018,03,29,15,34,9.00
2018,03,29,15,35,9.10
2018,03,29,15,36,9.10
2018,03,29,15,37,9.10
2018,03,29,15,38,9.10
2018,03,29,15,39,9.10
2018,03,29,15,40,9.10
2018,03,29,15,41,9.10
2018,03,29,15,42,9.10
2018,03,29,15,43,9.10
2018,03,29,15,44,9.10
2018,03,29,15,45,9.10
2018,03,29,15,46,9.10
2018,03,29,15,47,9.00
2018,03,29,15,48,9.10
2018,03,29,15,49,9.10
2018,03,29,15,50,9.10
2018,03,29,15,51,9.10
2018,03,29,15,52,9.10
2018,03,29,15,53,9.10
2018,03,29,15,54,9.10
2018,03,29,15,55,9.10
2018,03,29,15,56,9.10
2018,03,29,15,57,9.10
2018,03,29,15,58,9.10
2018,03,29,15,59,9.10
2018,03,29,16,00,9.10
2018,03,29,16,01,9.00
2018,03,29,16,02,9.00
2018,03,29,16,03,9.00
2018,03,29,16,04,9.00
2018,03,29,16,05,8.90
2018,03,29,16,06,8.90
2018,03,29,16,07,8.90
2018,03,29,16,08,8.90
2018,03,29,16,09,8.90
2018,03,29,16,10,8.90
2018,03,29,16,11,8.90
2018,03,29,16,12,8.90
2018,03,29,16,13,8.90
2018,03,29,16,14,9.00
2018,03,29,16,15,9.00
2018,03,29,16,16,9.00
2018,03,29,16,17,9.00
2018,03,29,16,18,9.00
2018,03,29,16,19,9.00
2018,03,29,16,20,9.00
2018,03,29,16,21,9.00
2018,03,29,16,22,9.00
2018,03,29,16,23,9.00
2018,03,29,16,24,9.00
2018,03,29,16,25,8.90
2018,03,29,16,26,8.90
2018,03,29,16,27,8.90
2018,03,29,16,28,8.90
2018,03,29,16,29,8.90
2018,03,29,16,30,8.90
2018,03,29,16,31,8.90
2018,03,29,16,32,8.90
2018,03,29,16,33,8.90
2018,03,29,16,34,9.00
2018,03,29,16,35,9.00
2018,03,29,16,36,9.00
2018,03,29,16,37,9.00
2018,03,29,16,38,9.00
2018,03,29,16,39,9.00
2018,03,29,16,40,9.10
2018,03,29,16,41,9.10
2018,03,29,16,42,9.10
2018,03,29,16,43,9.10
2018,03,29,16,44,9.10
2018,03,29,16,45,9.10
2018,03,29,16,46,9.10
2018,03,29,16,47,9.10
2018,03,29,16,48,9.10
2018,03,29,16,49,9.10
2018,03,29,16,50,9.10
2018,03,29,16,51,9.10
2018,03,29,16,52,9.10
2018,03,29,16,53,9.10
2018,03,29,16,54,9.00
2018,03,29,16,55,9.00
2018,03,29,16,56,9.00
2018,03,29,16,57,9.00
2018,03,29,16,58,9.00
2018,03,29,16,59,9.00
2018,03,29,17,00,9.00
2018,03,29,17,01,9.00
2018,03,29,17,02,9.00
2018,03,29,17,03,9.00
2018,03,29,17,04,9.00
2018,03,29,17,05,9.00
2018,03,29,17,06,9.00
2018,03,29,17,07,9.00
2018,03,29,17,08,9.10
2018,03,29,17,09,9.10
2018,03,29,17,10,9.10
2018,03,29,17,11,9.10
2018,03,29,17,12,9.10
2018,03,29,17,13,9.10
2018,03,29,17,14,9.10
2018,03,29,17,15,9.10
2018,03,29,17,16,9.10
2018,03,29,17,17,9.00
2018,03,29,17,18,9.00
2018,03,29,17,19,9.00
2018,03,29,17,20,9.00
2018,03,29,17,21,9.00
2018,03,29,17,22,9.00
2018,03,29,17,23,9.00
2018,03,29,17,24,9.00
2018,03,29,17,25,9.10
2018,03,29,17,26,9.10
2018,03,29,17,27,9.00
2018,03,29,17,28,9.00
2018,03,29,17,29,9.00
2018,03,29,17,30,8.90
2018,03,29,17,31,8.90
2018,03,29,17,32,8.90
2018,03,29,17,33,8.90
2018,03,29,17,34,8.90
2018,03,29,17,35,8.90
2018,03,29,17,36,8.90
2018,03,29,17,37,8.90
2018,03,29,17,38,8.90
2018,03,29,17,39,8.90
2018,03,29,17,40,8.90
2018,03,29,17,41,8.80
2018,03,29,17,42,8.80
2018,03,29,17,43,8.80
2018,03,29,17,44,8.80
2018,03,29,17,45,8.80
2018,03,29,17,46,8.80
2018,03,29,17,47,8.80
2018,03,29,17,48,8.80
2018,03,29,17,49,8.80
2018,03,29,17,50,8.80
2018,03,29,17,51,8.80
2018,03,29,17,52,8.80
2018,03,29,17,53,8.70
2018,03,29,17,54,8.70
2018,03,29,17,55,8.70
2018,03,29,17,56,8.70
2018,03,29,17,57,8.70
2018,03,29,17,58,8.70
2018,03,29,17,59,8.70
2018,03,29,18,00,8.70
2018,03,29,18,01,8.70
2018,03,29,18,02,8.70
2018,03,29,18,03,8.70
2018,03,29,18,04,8.70
2018,03,29,18,05,8.70
2018,03,29,18,06,8.70
2018,03,29,18,07,8.70
2018,03,29,18,08,8.70
2018,03,29,18,09,8.70
2018,03,29,18,10,8.70
2018,03,29,18,11,8.70
2018,03,29,18,12,8.70
2018,03,29,18,13,8.70
2018,03,29,18,14,8.70
2018,03,29,18,15,8.70
2018,03,29,18,16,8.70
2018,03,29,18,17,8.70
2018,03,29,18,18,8.70
2018,03,29,18,19,8.60
2018,03,29,18,20,8.60
2018,03,29,18,21,8.60
2018,03,29,18,22,8.60
2018,03,29,18,23,8.60
2018,03,29,18,24,8.60
2018,03,29,18,25,8.60
2018,03,29,18,26,8.60
2018,03,29,18,27,8.60
2018,03,29,18,28,8.60
2018,03,29,18,29,8.60
2018,03,29,18,30,8.60
2018,03,29,18,31,8.60
2018,03,29,18,32,8.60
2018,03,29,18,33,8.60
2018,03,29,18,34,8.60
2018,03,29,18,35,8.50
2018,03,29,18,36,8.50
2018,03,29,18,37,8.50
2018,03,29,18,38,8.50
2018,03,29,18,39,8.50
2018,03,29,18,40,8.50
2018,03,29,18,41,8.50
2018,03,29,18,42,8.50
2018,03,29,18,43,8.50
2018,03,29,18,44,8.50
2018,03,29,18,45,8.50
2018,03,29,18,46,8.50
2018,03,29,18,47,8.50
2018,03,29,18,48,8.50
2018,03,29,18,49,8.50
2018,03,29,18,50,8.50
2018,03,29,18,51,8.50
2018,03,29,18,52,8.40
2018,03,29,18,53,8.40
2018,03,29,18,54,8.40
2018,03,29,18,55,8.40
2018,03,29,18,56,8.40
2018,03,29,18,57,8.40
2018,03,29,18,58,8.40
2018,03,29,18,59,8.30
2018,03,29,19,00,8.30
2018,03,29,19,01,8.30
2018,03,29,19,02,8.30
2018,03,29,19,03,8.30
2018,03,29,19,04,8.30
2018,03,29,19,05,8.30
2018,03,29,19,06,8.30
2018,03,29,19,07,8.30
2018,03,29,19,08,8.30
2018,03,29,19,09,8.20
2018,03,29,19,10,8.20
2018,03,29,19,11,8.20
2018,03,29,19,12,8.20
2018,03,29,19,13,8.20
2018,03,29,19,14,8.20
2018,03,29,19,15,8.20
2018,03,29,19,16,8.20
2018,03,29,19,17,8.20
2018,03,29,19,18,8.20
